Dauntless Aviation
Greetings, Guest! To participate, [sign up for a free account] or [log in]
Airports North America United States Colorado
98CO

NCMC HELIPORT

GREELEY, CO, USA

Airport Info

Location

Latitude / Longitude: 40°24'53"N / 104°42'28"W
  40°24.9'N / 104°42.4667'W
  40.4150 / -104.7078
Elevation: 4882 ft. (estimated)
Variation: 12E (1985)
From city: 00 miles N of GREELEY, CO

Operations

Facility use: Private
Sectional chart: DENVER
Control tower: no
Boundary ARTCC: DENVER
FSS: DENVER [1-800-WX-BRIEF]
Segmented circle: no

Communications

Nearby radio navigation aids

VOR radial/distance VOR name Freq Var
GLL 233oT/8.9 GILL VORTAC 114.20 13E
DVV 353oT/31.5 MILE HIGH VORTAC 114.70 11E
BJC 33oT/36.1 JEFFCO VOR/DME 115.40 11E
DEN 357oT/36.2 DENVER VOR/DME 117.90 11E
 
NDB name Hdg/Dist Freq Var ID

Services

Runway Information

Helipad H1

Dimensions: 40 x 40 ft.
Surface: PORTLAND CEMENT CONCRETE,NO SPECIAL SURFACE TREATMENT
 

Additional Remarks

Instrument Procedures

No published instrument procedures available
Topographic chart at:
Satellite photo at:
Airport distance calculator
From:
Weather Reports

METAR

KGXY
4.2nm NE
KGXY 230215Z AUTO 07007KT 10SM CLR 11/02 A3012 RMK AO1
KFNL
14.3nm W
KFNL 230215Z AUTO 20005KT 10SM CLR 12/02 A3013 RMK AO1
KLMO
25.8nm SW
KLMO 230213Z AUTO 24004KT 10SM CLR 14/03 A3014 RMK AO2 T01390029
KEIK
28.6nm S
KEIK 230215Z AUTO 25009KT 10SM BKN120 16/00 A3013 RMK AO2 T01630000
KBDU
33.3nm SW
KBDU 230216Z AUTO 22006KT 10SM CLR 16/00 A3013 RMK AO2
KDEN
35.0nm SE
KDEN 230153Z 18005KT 10SM SCT070 BKN090 BKN110 13/05 A3014 RMK AO2 SLP167 VIRGA T01330050

TAF

KDEN
35.0nm SE
KDEN 222341Z 2300/2406 33010KT P6SM VCSH FEW060 BKN090 BKN220 FM230200 13006KT P6SM SCT080 BKN220 FM230500 20007KT P6SM FEW100 SCT220 FM231700 16007KT P6SM SCT220 FM231900 03008KT P6SM FEW120 SCT220
KBJC
35.3nm S
KBJC 222341Z 2300/2324 36006KT P6SM VCSH FEW060 BKN090 BKN220 FM230200 24006KT P6SM SCT080 BKN220 FM230500 31007KT P6SM FEW100 SCT220 FM231500 VRB05KT P6SM SCT220 FM231900 03006KT P6SM FEW120 SCT220
Safelog

 

Dauntless Aviation

© 2007-2014 Dauntless Aviation, all rights reserved
Information provided via PilotNav comes from a variety of official and unofficial data sources. As errors are possible, do not use PilotNav for primary flight planning purposes. Verify any information that you receive via PilotNav with current and canonical charts and other official documents. The material in this database is subject to database copyrights held by Dauntless Aviation and may not be copied without the express permission of Dauntless Aviation - licenses for use of part of all of this data are available for purchase; enquire via the Dauntless Aviation helpdesk. A number of mechanisms and markers exist in the database to protect against and identify infringement / copyright. Automated queries against this website are stictly prohibited, and all activity is logged and analyzed.